Regional Weather Roundup
Issued by NWS

Home | Current Version | Previous Version | Text Only | Print | Product List | Glossary On
Versions: 1 2 3 4 5 6 7 8 9 10 11 12 13 14 15 16 17 18 19 20 21 22 23 24 25 26 27 28 29 30 31 32 33 34 35 36 37 38 39 40 41 42 43 44 45 46 47 48 49 50
000
ASUS43 KBIS 261920
RWRND

NORTH DAKOTA REGIONAL WEATHER ROUNDUP
NATIONAL WEATHER SERVICE BISMARCK ND
100 PM CST MON JAN 26 2015

NOTE: "FAIR" INDICATES FEW OR NO CLOUDS BELOW 12,000 FEET WITH NO
SIGNIFICANT WEATHER AND/OR OBSTRUCTIONS TO VISIBILITY.


NDZ001>003-009>011-017-262000-
NORTHWEST NORTH DAKOTA

CITY           SKY/WX    TMP DP  RH WIND       PRES   REMARKS
WILLISTON      SUNNY     47  31  53 W5        29.96F
MINOT          SUNNY     43  32  65 W10       29.94S
MINOT AFB      SUNNY     40  37  86 W13       29.93F
$$

NDZ018>021-031>035-040>046-262000-
SOUTHWEST NORTH DAKOTA

CITY           SKY/WX    TMP DP  RH WIND       PRES   REMARKS
BISMARCK       SUNNY     48  29  47 N12       29.96F
DICKINSON      SUNNY     49  32  52 W10       29.97F
GARRISON         N/A     44  35  70 NW12      29.95F
HETTINGER ARPT MOSUNNY   51  31  46 W12       30.00F
$$

NDZ004>008-012>016-024-026-027-054-262000-
NORTHEAST NORTH DAKOTA

CITY           SKY/WX    TMP DP  RH WIND       PRES   REMARKS
GRAND FORKS    CLOUDY    34  28  80 N22G30    29.87R
GRND FRKS AFB  CLOUDY    36  28  75 N17G24    29.88R
DEVILS LAKE    SUNNY     39  30  70 NW16      29.89S
$$

NDZ022-023-025-028>030-036>039-047>053-262000-
SOUTHEAST NORTH DAKOTA

CITY           SKY/WX    TMP DP  RH WIND       PRES   REMARKS
FARGO          CLOUDY    42  32  67 NW21      29.84R
JAMESTOWN      SUNNY     40  32  73 NW23G32   29.87F
$$




USA.gov is the U.S. government's official web portal to all federal, state and local government web resources and services.